THOR ABLESTAR DEB, 652

Orbit data source: Space-Track

THOR ABLESTAR DEB, 652 is space debris in LEO originally from a launch on Thu, 29 Jun 1961 UTC launched from the Air Force Eastern Test Range (AFETR). Debris objects in space refer to the collection of defunct objects orbiting the Earth. Examples of debris include non-operational satellites, rocket bodies, and fragments generated from explosions, collisions, or faulty payload assembly.

Loading next visibility...
THOR ABLESTAR DEB details
Identifier
652, 1961-015HD
Orbit
LEO
Last TLE update10 hours ago
Origin
Flag of USUSAF SSD (US)
ManufacturerUnknown
MissionSpacecraft
Bus & MotorUnknown
MassUnknown
Launch date (UTC)
1961-06-29 (64 years ago)
Launch vehicleUnknown
Launch site
Air Force Eastern Test Range (AFETR)
Object type
Payload
Rocket body
Debris
Shape & HBRUnknown
Radar Cross SectionSmall (<0.1 m²)

Expand to show TLE details & history

TLE from 10 hours ago
0 THOR ABLESTAR DEB
1   652U 61015HD  25014.77045767  .00003725  00000-0  18765-2 0  9997
2   652  66.7072 354.9509 0073898   2.3064 357.8353 14.16000194220787
Epoch: 2025-01-14T18:29Z
Definitive object data (Epoch: 2025-01-14T18:29:27.542Z)
Latitude-0.00001°
Longitude-36.88624°
Altitude787.706 km
Speed7.488 km/s
True Right ascension23h 39m 48s
True Declination0° 00' 00"
Sunlit
Object was in daylight at TLE epoch
Visualization TLE readout
Latitude-52.99828°
Longitude-72.56802°
Altitude833.398 km
Speed7.449 km/s
Apparent Right ascension19h 01m 01s
Apparent Declination-51° 18' 03"
Sunlit
Object is in daylight
Visualization observer readout
Local Sidereal Time05:01:56
Azimuth231.118° WSW
Elevation-66.496°
Doppler factor1
Orbital elements
Apogee altitude890.617 km
Perigee altitude783.976 km
Semi-major axis7,215.433 km
Eccentricity0.0073898
Inclination66.7072°
RAAN354.9509°
Arg. of periapsis2.3064°
True anomaly357.80302°
Mean anomaly357.8353°
Eccentric anomaly357.81919°
Mean motion3.54119 °/min
BSTAR0.0018765
Orbital period101.66 mins
Loading maneuver chart data...

THOR ABLESTAR DEB Visibility forecast

Observer location: undefined°, undefined

Span
Click to sort rows by Start time (UTC) header in descending order
Start Az.
Max El. time (UTC)
Max El. Az.
Max El.
End time (UTC)
End Az.
10 mins2025-01-15 08:34:53.677Z346.828° N2025-01-15 08:39:53.677Z56.053° ENE32.227°2025-01-15 08:44:53.677Z120.336° SE
8 mins2025-01-15 10:20:53.677Z300.502° NW2025-01-15 10:23:53.677Z256.62° W28.463°2025-01-15 10:28:53.677Z190.911° SSW
8 mins2025-01-15 23:26:53.677Z169.568° S2025-01-15 23:29:53.677Z112.74° SE33.648°2025-01-15 23:34:53.677Z43.277° NE
7 mins2025-01-16 01:11:53.677Z267.288° W2025-01-16 01:14:53.677Z317.123° NNW25.436°2025-01-16 01:18:53.677Z7.4° NNE
|